Dewpoint
-3 -3 -3 -4 -4 -5 -6 -7 -8 -8 -8 -8 -9 -9 -9 -9 -10 -4 -3 -7 -11 -13 -4 -2 -0 -1 -2 2 5 6 8 8 6 4 5 -1 -1 -2 -3 -3 -4 -5 -3 -1 -0
-4 -3 -3 -3 -4 -4 -5 -6 -8 -8 -9 -8 -9 -9 -9 -9 -11 -5 -6 -8 -13 -11 -5 -1 -2 -3 -3 -0 3 5 8 7 3 2 1 -1 -3 -2 -3 -4 -4 -4 -3 -0 -3
-0 -4 -4 -4 -4 -4 -4 -5 -7 -8 -9 -9 -9 -10 -9 -10 -8 -5 -7 -7 -13 -4 -1 -1 -3 -3 -4 -2 1 3 6 2 1 2 0 -2 -2 -2 -4 -3 -5 -4 -3 -1 -0
-7 -3 -1 -4 -5 -4 -5 -5 -6 -8 -9 -10 -9 -10 -9 -9 -3 -5 -6 -8 -13 -5 -3 -2 -3 -3 -4 -2 -2 1 0 -1 1 1 0 -1 -3 -3 -3 -4 -4 -6 -4 -3 0
-1 -7 -9 -4 -4 -5 -5 -5 -6 -7 -9 -10 -10 -10 -10 -3 -4 -6 -7 -10 -11 -7 -4 -4 -4 -5 -3 -8 -5 -3 -2 -3 -2 -3 -5 -6 -4 -4 -5 -4 -4 -5 -5 -3 -1
7 3 -7 -13 -7 -4 -6 -6 -6 -7 -8 -10 -10 -9 -9 -4 -6 -7 -6 -9 -6 -5 -5 -6 -6 -5 -6 -8 -6 -6 -6 -8 -7 -7 -7 -6 -6 -6 -8 -6 -5 -3 -4 -4 -3
8 6 -0 -10 -16 -8 -6 -7 -7 -7 -7 -8 -9 -9 -8 -7 -7 -8 -6 -6 -10 -6 -4 -6 -6 -4 -6 -7 -6 -8 -7 -7 -7 -6 -5 -4 -3 -3 -6 -8 -7 -4 -4 -4 -4
9 8 4 -5 -13 -17 -7 -7 -8 -7 -7 -7 -9 -8 -4 -8 -8 -9 -6 -5 -6 -6 -8 -12 -7 -5 -5 -5 -7 -6 -6 -1 -3 -5 -4 -5 -1 -4 -7 -7 -8 -8 -7 -6 -5
8 8 7 0 -9 -18 -12 -7 -10 -8 -8 -7 -7 -5 -6 -8 -10 -9 -7 -6 -6 -6 -6 -10 -5 -4 -6 -3 -1 -3 -2 -3 -2 -6 -4 -4 -2 -6 -7 -7 -8 -8 -8 -8 -6
7 7 7 4 -8 -17 -17 -7 -10 -9 -6 -7 -6 -4 -6 -9 -7 -8 -7 -6 -6 -6 -6 -4 -4 -2 -3 -3 -1 -5 -6 -9 -8 -5 -6 -5 -4 -6 -10 -9 -9 -9 -9 -9 -8
8 8 7 6 -7 -17 -13 -6 0 -1 -2 -4 -5 -9 -9 -8 -9 -8 -7 -6 -6 -7 -5 -4 -4 -1 -4 -5 -8 -9 -10 -10 -10 -6 -7 -5 -6 -7 -8 -9 -8 -8 -9 -10 -9
8 8 7 7 -6 -17 -0 2 1 1 2 -3 -2 -5 -7 -8 -8 -8 -7 -7 -7 -5 -8 -6 -3 -5 -6 -6 -6 -5 -6 -7 -8 -8 -8 -7 -6 -8 -9 -9 -9 -8 -8 -9 -10
9 8 7 7 -7 1 1 -1 0 3 3 -3 -4 -4 -7 -7 -9 -9 -8 -8 -7 -6 -7 -6 -5 -7 -6 -6 -4 -5 -5 -7 -7 -7 -7 -6 -3 -5 -8 -10 -9 -9 -9 -9 -11
9 8 7 7 4 -4 4 0 -2 1 2 -4 -2 -3 -4 -6 -8 -9 -8 -8 -9 -7 -7 -7 -6 -6 -6 -5 -6 -2 -7 -7 -5 -4 -2 -6 -3 -6 -8 -7 -8 -9 -10 -9 -10
9 8 8 7 6 2 4 0 -2 2 -1 -5 -4 -5 -5 -7 -7 -8 -8 -7 -6 -7 -7 -5 -5 -5 -4 -5 -6 -3 -6 -5 -4 -3 -3 -3 -3 -7 -7 -7 -8 -9 -10 -10 -9
8 8 8 8 7 5 -4 -2 2 1 -2 -4 -6 -6 -6 -6 -7 -6 -7 -7 -7 -7 -7 -6 -7 -6 -6 -6 -7 -6 -5 -3 -2 -1 3 -1 -4 -4 -7 -8 -9 -11 -11 -11 -11
6 8 8 8 8 6 -1 3 2 -1 -8 -4 -5 -6 -6 -5 -6 -7 -6 -6 -5 -4 -4 -6 -6 -7 -7 -5 -6 -5 -3 2 6 5 4 -4 -3 -5 -8 -9 -10 -12 -11 -11 -11
5 7 8 7 8 7 2 3 4 -5 -6 -6 -6 -6 -5 -6 -6 -7 -5 -4 -6 -7 -6 -3 -3 -5 -7 -6 -4 -4 -4 0 4 5 3 -3 -0 -3 -7 -12 -13 -14 -12 -11 -11
4 5 6 8 9 7 4 4 -3 -4 -7 -5 -6 -5 -4 -6 -5 -6 -5 -5 -7 -7 -4 -6 -4 -8 -7 -8 -6 -3 -2 -3 -0 -3 -0 1 -1 -4 -8 -10 -11 -11 -12 -11 -11
3 6 5 5 8 7 3 2 -3 -6 -7 -6 -4 -5 -4 -4 -4 -4 -4 -6 -6 -7 -9 -8 -5 -7 -8 -9 -8 -5 -4 -2 -3 2 6 1 -2 0 -4 -7 -8 -8 -8 -9 -9
4 6 6 7 8 7 3 -1 -2 -4 -6 -6 -5 -4 -5 -4 -4 -5 -5 -6 -6 -6 -8 -7 -6 -4 -7 -5 -5 -4 -4 -3 -2 1 4 7 3 -5 -4 -6 -7 -8 -8 -7 -7
4 6 6 8 7 7 6 2 -4 -4 -5 -4 -4 -3 -2 -5 -4 -4 -4 -6 -7 -6 -5 -7 -5 -4 -4 -7 -8 -6 -6 -5 1 1 0 3 4 -5 -5 -5 -9 -9 -8 -5 -5
4 4 5 7 8 8 6 5 4 1 -4 -4 -3 -3 -5 -4 -3 -3 -4 -4 -7 -4 -5 -5 -4 -3 -3 -4 -6 -5 -6 -5 -6 -2 4 5 2 -6 -5 -5 -8 -10 -8 -6 -4
3 6 5 6 6 5 6 6 5 2 1 -4 -4 -4 -4 -3 -4 -3 -3 -2 -5 -5 -5 -5 -3 -3 -2 -1 -3 -4 -4 -5 -5 -1 -3 0 1 -2 -3 -4 -6 -8 -9 -7 -4
1 3 4 5 5 5 4 5 6 5 1 -2 -3 -2 -2 -2 -4 -4 -4 -1 -2 -3 -4 -3 -2 -4 -5 -6 -5 -4 -3 -4 -4 -5 -3 -4 -4 -5 -7 -2 -4 -7 -8 -8 -7
1 2 2 5 4 5 5 5 5 4 2 1 1 -1 -2 -2 -3 -3 -4 -4 -3 -2 -3 -4 -2 -4 -4 -5 -5 -5 -5 -5 -4 -5 -5 -6 -6 -8 -9 -10 -10 -8 -6 -7 -8
1 -1 1 3 3 5 5 4 5 4 3 2 0 0 1 -0 -3 -5 -6 -7 -6 -4 -2 -3 -2 -2 -2 -4 -4 -2 -5 -6 -6 -5 -5 -4 -6 -8 -7 -8 -9 -10 -10 -7 -8
Wind_Speed
8 7 7 7 7 7 8 8 8 8 9 9 8 9 10 10 8 8 9 7 14 10 6 7 7 4 5 3 2 4 3 6 6 3 7 10 4 4 2 4 4 4 4 13 14
11 10 9 8 8 7 8 9 9 8 9 9 9 9 9 11 10 9 6 11 10 6 2 8 11 4 7 3 3 4 4 5 10 11 4 8 4 12 4 8 8 9 7 12 11
12 12 13 11 10 9 8 9 9 9 9 9 9 9 8 10 12 2 2 9 6 2 3 7 6 6 7 3 6 6 3 3 9 9 6 5 3 3 6 5 10 19 18 16 13
12 12 12 13 12 11 10 9 9 10 9 9 9 9 7 7 5 3 7 9 5 2 5 7 7 7 3 5 4 5 2 6 2 3 1 4 5 2 10 12 4 4 12 16 16
15 14 14 13 13 13 12 11 9 9 10 9 8 8 6 6 7 5 8 7 4 5 6 7 10 3 7 4 3 9 6 1 3 1 3 3 6 9 10 13 8 9 8 13 14
18 17 14 14 13 13 13 12 11 9 9 9 8 7 6 12 6 7 7 5 4 3 5 5 7 7 8 4 5 4 1 5 5 7 5 4 10 6 9 16 13 15 16 16 17
20 21 19 14 13 13 13 13 12 11 9 8 7 7 8 13 8 7 5 4 4 3 4 5 3 5 5 5 4 4 4 5 9 10 5 3 7 10 14 12 15 18 16 17 18
20 21 22 20 15 12 12 13 12 11 9 7 6 6 8 8 9 11 5 4 5 4 3 5 2 6 4 2 4 5 7 5 6 7 5 4 3 13 14 15 15 16 18 19 20
20 21 23 22 20 14 11 11 11 11 8 6 3 4 9 5 5 6 8 5 5 5 6 4 2 6 2 5 5 7 4 6 6 10 4 7 6 12 14 15 16 16 18 19 20
19 21 23 22 19 18 10 9 9 9 8 7 8 5 11 2 6 7 4 7 5 5 7 4 6 4 4 6 3 5 4 2 3 7 6 7 11 8 18 19 18 16 16 19 21
17 19 21 22 18 16 10 4 6 3 8 9 5 8 2 5 6 3 6 4 6 7 7 12 3 6 4 8 5 6 6 7 2 6 1 9 11 11 14 26 23 21 19 21 22
16 18 21 21 18 10 8 7 4 5 9 15 22 18 10 6 4 7 9 7 10 7 13 3 8 4 6 4 5 7 7 8 3 5 2 9 11 10 15 19 23 19 20 20 21
15 18 19 19 12 9 5 4 3 7 7 11 17 22 17 11 7 10 12 7 9 7 9 7 3 3 1 2 5 8 5 5 5 6 11 7 9 7 10 18 16 17 15 20 21
13 15 16 16 6 8 2 7 5 5 5 6 5 3 11 8 7 11 10 6 6 6 8 6 5 1 2 5 4 6 6 3 5 6 2 4 5 4 8 8 10 17 18 15 23
14 14 15 15 12 5 10 7 4 3 5 5 4 4 7 12 7 5 10 6 6 7 1 1 3 3 5 4 3 2 3 4 4 6 7 4 2 8 11 8 10 18 24 21 22
17 13 15 9 10 11 9 4 3 3 6 3 5 5 5 17 5 3 5 5 2 5 4 7 1 4 2 5 3 3 4 7 5 3 3 9 7 4 8 10 9 19 26 23 23
17 14 13 12 5 12 4 2 3 5 2 5 4 6 9 8 11 8 8 7 6 4 7 9 9 4 2 3 3 3 3 2 2 2 4 6 4 9 4 8 10 14 26 24 22
18 18 18 17 8 8 1 3 7 6 11 3 2 5 7 7 7 10 6 9 13 10 4 5 4 11 8 5 0 7 3 1 4 1 0 2 6 6 6 11 21 27 25 23 23
18 18 20 19 8 7 5 7 6 9 9 7 4 5 8 8 1 9 11 12 11 14 7 5 4 4 3 3 2 3 4 2 3 4 1 5 7 4 4 5 11 24 27 26 24
14 13 22 17 11 7 6 10 10 7 2 2 6 11 7 10 6 7 7 7 14 13 19 3 1 2 4 1 6 2 5 1 2 3 4 7 6 6 7 9 8 11 25 25 24
10 6 7 14 15 10 8 9 13 22 4 3 5 8 8 2 10 8 5 3 5 7 19 3 5 4 4 8 8 4 3 5 1 3 3 4 5 4 11 12 14 14 24 26 26
8 5 7 23 10 7 10 12 14 26 13 8 1 8 8 6 7 6 8 2 3 7 3 7 4 5 9 4 5 6 8 8 4 4 4 2 6 1 5 10 21 23 26 26 27
6 14 12 25 7 9 8 19 28 20 17 7 9 8 8 6 5 7 14 4 3 7 4 6 4 3 3 1 1 5 8 7 6 0 6 3 6 2 4 5 20 25 25 26 26
7 3 11 19 11 4 12 18 18 17 28 28 16 16 13 10 10 5 3 3 5 5 9 5 4 7 5 4 5 5 8 12 11 5 7 13 11 2 3 1 2 17 24 27 27
9 7 5 3 10 9 7 6 17 20 24 14 17 20 16 15 15 16 9 4 4 6 3 3 6 9 13 18 6 8 8 14 17 19 10 8 17 16 10 7 11 14 14 22 28
9 7 11 7 8 17 14 16 17 14 19 20 19 13 16 21 17 12 15 9 9 8 5 5 4 8 17 14 13 14 13 13 18 21 19 21 25 17 26 26 15 9 21 27 25
18 27 20 9 9 8 11 14 14 20 26 24 19 17 21 20 22 29 32 29 15 8 11 6 5 4 10 10 10 15 24 21 17 19 14 22 23 16 12 13 20 23 25 25 31
Wind_Direction
346 345 341 340 340 337 334 335 331 325 319 315 316 314 312 310 297 300 298 292 304 298 291 329 311 294 303 254 237 281 298 261 229 233 90 123 160 140 185 155 148 155 69 137 175
340 336 333 332 330 333 332 331 329 324 319 316 313 313 314 316 300 295 261 308 307 298 286 330 327 317 263 241 225 240 233 355 14 51 76 137 243 144 183 199 166 150 153 162 182
340 335 330 327 324 324 326 326 325 322 318 313 310 312 316 321 314 238 297 317 319 295 323 311 304 296 290 261 217 239 286 48 45 59 22 130 207 198 208 251 210 188 192 181 187
350 338 330 325 320 318 316 317 320 319 314 311 309 309 312 316 321 302 321 324 329 294 342 308 277 254 270 230 202 277 92 350 93 70 58 261 254 190 222 245 115 151 201 188 195
2 350 337 325 318 314 311 310 312 313 312 310 307 309 315 283 275 286 319 323 352 353 321 323 294 252 236 238 227 242 127 250 123 155 234 283 259 250 263 225 216 180 189 200 202
357 353 341 331 319 311 308 306 305 304 307 306 302 301 302 279 288 298 302 343 340 314 312 306 321 333 312 320 274 10 190 194 185 207 226 237 258 195 250 222 205 198 203 204 206
350 349 343 334 323 310 304 303 301 299 299 299 294 295 278 249 265 290 287 307 333 309 307 291 285 276 347 198 244 239 229 197 206 214 234 201 254 229 232 184 206 204 209 210 214
337 345 345 335 328 313 301 299 300 296 294 289 285 285 260 259 256 272 254 281 334 327 292 291 267 290 266 358 233 233 226 225 143 165 181 164 312 200 199 183 205 208 214 216 213
333 337 343 342 331 319 301 298 301 297 289 277 294 286 272 255 290 240 219 243 265 301 309 307 317 277 218 240 230 204 243 207 170 196 147 198 301 148 174 197 213 218 213 209 208
329 338 341 341 337 326 312 303 304 294 282 263 240 272 241 246 212 225 217 223 245 281 281 249 233 228 216 240 329 345 294 117 173 178 206 238 253 252 194 204 218 226 220 208 206
323 330 338 345 341 338 342 0 315 331 225 229 307 224 208 241 251 220 209 220 241 250 267 195 276 240 59 38 3 313 317 293 274 134 224 236 247 245 222 200 211 223 230 224 210
318 328 334 347 346 351 19 5 357 316 306 255 256 247 250 201 235 215 204 212 200 250 241 235 236 30 64 33 321 303 292 291 65 94 194 273 272 254 219 222 213 212 226 226 209
307 320 329 344 358 2 11 330 336 346 270 282 239 230 222 227 233 222 193 214 265 258 257 247 351 116 42 228 273 268 247 354 331 318 232 269 274 208 223 227 194 212 218 211 206
301 311 331 343 351 7 343 322 316 339 282 194 190 249 215 207 231 219 199 235 218 261 259 263 78 221 211 261 282 293 19 349 303 320 287 179 288 194 172 176 180 200 209 204 199
293 302 323 342 335 10 280 301 320 15 299 117 146 197 187 192 140 170 192 207 259 220 230 276 169 232 256 266 23 63 350 311 305 286 298 239 199 263 138 200 204 201 199 202 201
284 290 301 332 348 298 301 293 15 235 251 119 126 174 175 216 160 143 204 195 291 283 239 265 137 302 266 75 26 67 265 231 259 238 257 213 171 251 185 198 188 193 188 191 198
277 275 273 287 252 281 275 48 234 240 133 150 197 174 212 192 222 193 191 192 202 188 222 215 191 136 176 200 166 208 291 288 264 190 232 21 178 251 240 189 176 170 170 184 191
268 270 271 270 246 290 162 234 242 264 232 76 154 202 213 205 221 195 222 216 214 251 319 198 205 158 179 234 353 191 218 268 289 266 173 33 234 249 217 167 174 171 174 181 187
271 266 258 259 272 247 232 213 208 224 306 150 157 204 204 237 141 191 222 245 225 199 207 223 171 39 71 351 333 134 206 334 306 250 320 218 253 302 126 121 141 161 171 180 187
288 281 265 251 232 215 232 233 220 268 12 257 223 189 223 181 192 194 219 222 230 225 215 325 105 188 105 360 263 249 319 135 223 241 245 253 226 223 194 182 189 171 174 182 190
290 284 263 218 208 203 224 221 244 260 26 259 263 279 266 209 189 212 281 194 187 224 188 234 231 127 123 205 178 168 244 220 273 229 231 315 253 311 197 186 187 196 189 192 193
268 247 234 179 187 212 220 221 263 269 220 242 299 278 280 252 196 241 221 229 156 127 242 212 283 226 203 150 200 195 207 203 161 240 232 156 276 320 24 190 181 192 197 200 199
251 253 246 201 222 224 238 229 241 260 258 246 229 223 286 282 285 223 239 74 159 149 211 179 225 260 156 187 138 223 206 228 246 272 226 164 259 353 14 11 184 188 196 197 199
273 262 226 218 236 253 230 239 238 235 245 259 267 248 263 259 269 284 231 110 189 219 236 323 263 235 222 136 123 201 207 214 212 215 222 228 268 281 185 37 306 193 197 198 200
245 255 256 224 244 233 251 261 235 237 237 239 241 251 254 257 242 255 243 139 185 227 229 220 249 259 265 277 220 230 216 205 217 226 215 226 236 255 269 188 216 222 214 203 202
239 250 270 267 247 226 226 234 241 252 233 231 241 239 233 251 254 249 262 227 221 168 199 216 243 245 257 272 286 272 243 220 213 231 245 266 265 265 283 298 286 233 216 225 215
242 254 271 287 267 251 239 240 256 258 256 256 259 258 237 255 254 257 269 277 281 229 189 204 199 216 260 264 271 269 239 235 227 222 206 234 242 248 271 262 252 254 243 233 227
Height
1569 1568 1567 1566 1564 1563 1563 1562 1560 1560 1559 1558 1557 1556 1555 1554 1553 1552 1551 1551 1550 1548 1548 1547 1546 1546 1546 1545 1545 1544 1547 1547 1537 1537 1542 1544 1546 1550 1551 1552 1554 1556 1556 1558 1561
1570 1569 1567 1565 1564 1563 1562 1561 1560 1559 1558 1557 1556 1555 1554 1553 1551 1550 1550 1549 1548 1547 1548 1547 1546 1546 1545 1545 1544 1543 1546 1540 1535 1535 1539 1544 1546 1548 1551 1551 1553 1556 1557 1558 1560
1570 1569 1568 1566 1564 1562 1561 1560 1559 1558 1557 1556 1556 1555 1554 1552 1550 1549 1549 1549 1548 1547 1547 1548 1548 1547 1544 1544 1542 1540 1543 1537 1540 1540 1541 1543 1546 1547 1548 1549 1548 1550 1552 1556 1558
1569 1568 1566 1565 1564 1562 1560 1559 1558 1557 1556 1555 1555 1554 1553 1553 1553 1549 1549 1548 1547 1547 1547 1547 1546 1545 1544 1543 1542 1542 1539 1541 1542 1543 1544 1544 1545 1545 1547 1546 1547 1548 1548 1551 1554
1569 1567 1565 1564 1562 1561 1559 1558 1557 1556 1555 1554 1554 1553 1553 1552 1551 1548 1548 1548 1547 1547 1547 1547 1545 1543 1543 1541 1542 1541 1540 1542 1543 1544 1544 1545 1545 1545 1543 1544 1546 1548 1550 1550 1552
1569 1566 1564 1562 1561 1559 1558 1557 1555 1554 1554 1553 1553 1552 1552 1552 1548 1547 1547 1547 1547 1547 1547 1547 1545 1544 1542 1541 1542 1540 1540 1541 1542 1543 1543 1544 1543 1542 1539 1541 1544 1545 1547 1549 1550
1569 1567 1563 1561 1559 1557 1556 1556 1554 1553 1552 1552 1551 1551 1551 1549 1547 1547 1547 1547 1547 1546 1546 1546 1545 1546 1543 1541 1542 1541 1542 1540 1540 1541 1542 1543 1542 1536 1537 1538 1540 1541 1543 1546 1548
1568 1565 1563 1560 1557 1555 1554 1553 1553 1552 1551 1550 1550 1550 1547 1545 1545 1545 1546 1547 1546 1546 1545 1545 1544 1545 1544 1542 1541 1540 1540 1545 1534 1538 1540 1542 1537 1528 1532 1536 1537 1538 1540 1542 1545
1567 1564 1562 1559 1556 1553 1552 1551 1551 1550 1549 1549 1550 1550 1546 1543 1543 1543 1545 1546 1546 1546 1545 1544 1544 1543 1543 1542 1542 1537 1542 1536 1538 1535 1536 1540 1536 1527 1530 1533 1534 1534 1536 1537 1541
1566 1563 1561 1558 1555 1552 1550 1549 1548 1548 1548 1548 1548 1551 1543 1543 1541 1542 1543 1544 1546 1546 1545 1544 1543 1542 1540 1541 1552 1541 1534 1528 1531 1536 1537 1537 1535 1527 1527 1528 1530 1530 1532 1533 1535
1566 1563 1560 1557 1554 1551 1550 1549 1550 1548 1546 1544 1544 1541 1541 1541 1541 1541 1542 1543 1545 1545 1543 1540 1544 1544 1533 1535 1536 1537 1536 1536 1525 1533 1536 1534 1530 1522 1518 1521 1523 1525 1527 1529 1530
1564 1563 1560 1557 1554 1552 1552 1552 1552 1553 1546 1539 1538 1539 1539 1539 1540 1540 1542 1543 1542 1542 1537 1540 1544 1535 1533 1535 1538 1537 1538 1535 1526 1530 1535 1530 1524 1514 1512 1512 1514 1518 1521 1523 1526
1564 1562 1560 1558 1555 1554 1552 1553 1552 1552 1548 1532 1530 1532 1537 1539 1537 1536 1539 1540 1540 1539 1537 1541 1535 1535 1535 1536 1539 1536 1537 1538 1540 1532 1525 1529 1523 1508 1502 1506 1509 1513 1515 1518 1521
1563 1561 1559 1557 1558 1555 1555 1553 1553 1553 1549 1527 1529 1529 1533 1536 1536 1535 1536 1540 1536 1538 1534 1534 1534 1535 1536 1539 1535 1545 1537 1537 1539 1541 1542 1523 1548 1502 1500 1503 1505 1508 1511 1513 1516
1561 1560 1559 1557 1557 1557 1556 1553 1553 1554 1556 1527 1530 1530 1531 1534 1532 1533 1534 1537 1537 1534 1536 1538 1535 1538 1539 1536 1534 1541 1538 1539 1539 1543 1539 1523 1542 1510 1498 1507 1504 1503 1505 1509 1512
1558 1558 1558 1559 1557 1558 1555 1554 1555 1557 1550 1527 1527 1529 1532 1531 1531 1534 1535 1537 1536 1534 1533 1534 1534 1535 1534 1536 1537 1538 1539 1538 1538 1541 1551 1523 1531 1511 1502 1494 1495 1496 1499 1503 1507
1555 1555 1556 1556 1558 1555 1555 1556 1557 1552 1518 1527 1525 1525 1528 1529 1529 1531 1533 1535 1537 1546 1542 1529 1532 1533 1535 1538 1538 1540 1544 1554 1556 1557 1548 1514 1525 1508 1483 1480 1484 1489 1494 1499 1503
1551 1551 1552 1553 1555 1555 1555 1558 1558 1519 1517 1519 1521 1524 1525 1522 1527 1527 1529 1533 1529 1529 1531 1533 1540 1530 1531 1532 1532 1540 1538 1550 1554 1545 1534 1521 1534 1501 1473 1474 1477 1484 1490 1496 1500
1547 1547 1547 1549 1552 1554 1557 1554 1534 1523 1515 1519 1522 1526 1524 1519 1525 1523 1527 1526 1521 1524 1534 1525 1529 1528 1529 1530 1533 1532 1545 1532 1540 1523 1537 1519 1498 1481 1476 1476 1478 1482 1487 1491 1495
1544 1543 1542 1546 1550 1552 1554 1538 1527 1518 1519 1518 1523 1517 1516 1519 1527 1523 1522 1510 1516 1514 1517 1516 1528 1528 1533 1534 1533 1535 1535 1544 1543 1556 1545 1510 1498 1495 1485 1482 1480 1481 1484 1488 1493
1544 1543 1538 1539 1546 1547 1541 1534 1528 1519 1522 1522 1520 1517 1512 1512 1517 1517 1514 1508 1508 1510 1514 1517 1524 1537 1533 1534 1530 1539 1538 1534 1532 1532 1538 1532 1501 1471 1472 1472 1476 1478 1481 1485 1488
1544 1541 1535 1536 1540 1533 1529 1527 1526 1520 1522 1522 1522 1521 1516 1509 1513 1517 1511 1506 1508 1511 1516 1515 1519 1527 1526 1513 1515 1517 1523 1525 1540 1528 1526 1527 1518 1464 1464 1465 1468 1474 1478 1483 1486
1540 1538 1535 1532 1527 1525 1523 1521 1523 1521 1521 1517 1519 1519 1514 1513 1515 1508 1507 1510 1510 1511 1515 1514 1523 1533 1524 1523 1518 1520 1515 1515 1515 1518 1529 1540 1511 1467 1465 1464 1465 1470 1475 1479 1483
1541 1532 1530 1530 1523 1523 1520 1516 1514 1515 1517 1517 1516 1517 1516 1514 1510 1507 1504 1509 1511 1512 1514 1515 1513 1514 1517 1503 1505 1517 1509 1508 1513 1525 1516 1505 1490 1471 1469 1468 1467 1469 1472 1475 1479
1538 1529 1525 1522 1524 1522 1520 1511 1510 1511 1512 1512 1512 1513 1515 1515 1512 1509 1505 1508 1512 1511 1512 1514 1516 1510 1501 1493 1496 1498 1498 1502 1506 1502 1505 1491 1488 1472 1467 1467 1466 1467 1469 1472 1474
1534 1532 1528 1523 1520 1521 1516 1510 1509 1506 1507 1504 1506 1508 1509 1509 1508 1507 1504 1501 1503 1508 1511 1507 1511 1505 1502 1494 1492 1492 1487 1488 1490 1491 1492 1487 1478 1466 1464 1462 1463 1464 1465 1466 1468
1527 1528 1530 1519 1517 1517 1511 1509 1506 1509 1502 1502 1503 1503 1502 1503 1503 1503 1499 1496 1494 1495 1503 1503 1507 1506 1506 1496 1494 1491 1466 1472 1476 1473 1480 1483 1462 1461 1462 1457 1455 1457 1460 1460 1461